Charlottesville, VA

3:47 AM EST on January 19, 2017 (GMT -0500)
Charlottesville-Albemarle

Weather History for KCHO - February, 2014

Change the Weather History Date:

Sunday, February 23, 2014

  Actual Average Record
Temperature  
Mean Temperature 52 °F 40 °F  
Max Temperature 68 °F 51 °F 74 °F (1943)
Min Temperature 36 °F 29 °F 8 °F (1907)
Degree Days  
Heating Degree Days 13 25  
Month to date heating degree days 609 629  
Since 1 July heating degree days 3347 3289  
Cooling Degree Days 0 0  
Month to date cooling degree days 0 0  
Year to date cooling degree days 0 0  
Growing Degree Days 2 (Base 50)    
Moisture  
Dew Point 25 °F    
Average Humidity 37    
Maximum Humidity 59    
Minimum Humidity 15    
Precipitation  
Precipitation 0.00 in 0.10 in 0.96 in (1971)
Month to date precipitation 2.84 2.16  
Year to date precipitation 5.09 4.93  
Sea Level Pressure  
Sea Level Pressure 29.93 in    
Wind  
Wind Speed 8 mph (SSW)    
Max Wind Speed 18 mph    
Max Gust Speed 24 mph    
Visibility 10 miles    
Events      
T = Trace of Precipitation, MM = Missing Value Source: NWS Daily Summary

Daily Weather History Graph

Daily Weather History Graph

Search for Another Location

Airport or City:

Trip Planner

Search our weather history database for the weather conditions in past years. The results will help you decide how hot, cold, wet, or windy it might be!

Date:

Astronomy

Feb. 23, 2014 Rise Set
Actual Time 6:53 AM EST 6:00 PM EST
Civil Twilight 6:27 AM EST 6:27 PM EST
Nautical Twilight 5:56 AM EST 6:58 PM EST
Astronomical Twilight 5:26 AM EST 7:28 PM EST
Moon 1:47 AM EST (2/23) 12:04 PM EST (2/23)
Length of Visible Light 12h 00m
Length of Day
11h 07m
Last Quarter, 39% of the Moon is Illuminated
Feb 23
Last Quarter
Mar 1
New
Mar 8
First Quarter
Mar 16
Full
Mar 23
Last Quarter

Hourly Weather History & Observations

Time (EST) Temp. Windchill Dew Point Humidity Pressure Visibility Wind Dir Wind Speed Gust Speed Precip Events Conditions
12:53 AM 43.0 °F 38.8 °F 24.1 °F 47% 30.03 in 10.0 mi South 6.9 mph - N/A   Clear
1:53 AM 46.0 °F 40.6 °F 23.0 °F 40% 30.02 in 10.0 mi South 11.5 mph - N/A   Clear
2:53 AM 45.0 °F 40.1 °F 23.0 °F 42% 30.01 in 10.0 mi South 9.2 mph - N/A   Clear
3:53 AM 42.1 °F 37.7 °F 24.1 °F 49% 30.00 in 10.0 mi South 6.9 mph - N/A   Clear
4:53 AM 39.9 °F 33.9 °F 24.1 °F 53% 30.00 in 10.0 mi SSW 9.2 mph - N/A   Clear
5:53 AM 37.9 °F 33.5 °F 24.1 °F 57% 30.01 in 10.0 mi SSW 5.8 mph - N/A   Clear
6:53 AM 39.0 °F 32.8 °F 25.0 °F 57% 30.01 in 10.0 mi SSW 9.2 mph - N/A   Clear
7:53 AM 42.1 °F 36.6 °F 25.0 °F 51% 30.01 in 10.0 mi SSW 9.2 mph - N/A   Clear
8:53 AM 44.1 °F 39.5 °F 26.1 °F 49% 30.01 in 10.0 mi SSW 8.1 mph - N/A   Clear
9:53 AM 46.9 °F - 26.1 °F 44% 29.99 in 10.0 mi SSW 5.8 mph - N/A   Mostly Cloudy
10:53 AM 54.0 °F - 26.1 °F 34% 29.96 in 10.0 mi South 8.1 mph - N/A   Scattered Clouds
11:53 AM 60.1 °F - 26.1 °F 27% 29.93 in 10.0 mi South 10.4 mph - N/A   Partly Cloudy
12:53 PM 64.0 °F - 24.1 °F 22% 29.89 in 10.0 mi SSW 8.1 mph - N/A   Clear
1:53 PM 66.9 °F - 19.9 °F 17% 29.87 in 10.0 mi WSW 8.1 mph 17.3 mph N/A   Clear
2:53 PM 66.9 °F - 19.9 °F 17% 29.86 in 10.0 mi Variable 6.9 mph 17.3 mph N/A   Clear
3:53 PM 68.0 °F - 19.9 °F 16% 29.83 in 10.0 mi Variable 6.9 mph - N/A   Clear
4:53 PM 66.9 °F - 21.9 °F 18% 29.83 in 10.0 mi Variable 5.8 mph - N/A   Clear
5:53 PM 63.0 °F - 23.0 °F 22% 29.83 in 10.0 mi SSW 6.9 mph - N/A   Clear
6:53 PM 62.1 °F - 23.0 °F 22% 29.83 in 10.0 mi SSW 5.8 mph - N/A   Clear
7:53 PM 55.0 °F - 28.9 °F 37% 29.86 in 10.0 mi NE 10.4 mph - N/A   Overcast
8:53 PM 53.1 °F - 28.9 °F 40% 29.87 in 10.0 mi NE 15.0 mph 24.2 mph N/A   Overcast
9:53 PM 48.9 °F - 28.9 °F 46% 29.90 in 10.0 mi NNE 8.1 mph - N/A   Mostly Cloudy
10:53 PM 48.0 °F - 28.9 °F 48% 29.91 in 10.0 mi Calm Calm - N/A   Mostly Cloudy
11:53 PM 48.0 °F - 30.0 °F 50% 29.90 in 10.0 mi Calm Calm - N/A   Overcast